Flag for Jamaica Weather past 2 weeks in Montego Bay, Jamaica

Now
75 °F

Passing clouds.


Feels Like: 75 °F
Forecast: 75 / 85 °F
Wind: 1 mph from North

Location: Montego Bay / Sangster

Current Time: Mar 1, 2015 at 2:52:53 AM

Latest Report: Mar 1, 2015 at 2:00 AM


Visibility: N/A

Pressure: 30.07 "Hg

Humidity: 89%

Dew point: 72 °F

Location of Montego BayLocation

Historic Weather in Montego Bay — Graph

°F

Montego Bay temperature yesterday

Maximum temperature yesterday: 82 °F (at 10:00 AM)
Minimum temperature yesterday: 75 °F (at 4:00 AM)
Average temperature yesterday: 79 °F

Past Weeks' High & Low Weather Summary

 TemperatureHumidityPressure
High86 °F (Feb 26, 2:00 PM)100% (Feb 18, 8:00 PM)30.09 "Hg (Feb 18, 8:00 PM)
Low72 °F (Feb 14, 5:00 AM)55% (Feb 14, 6:00 PM)29.89 "Hg (Feb 25, 3:00 PM)
Average77 °F81%30.00 "Hg
* Reported Feb 14 1:00 AM — Mar 1 1:00 AM, Montego Bay, Weather by CustomWeather, © 2015

Note: Actual official high and low records may vary slightly from our data, if they occured in-between our weather recording intervals... More about our weather records

Advertising

Montego Bay weather history for previous 24 hours

 ConditionsComfort  
Time TempWeatherWind HumidityBarometerVisibility
1:00 AM
Sun, Mar 1
77 °FPassing clouds.6 mph83%30.07 "HgN/A
12:00 AM77 °FPassing clouds.6 mph83%30.09 "HgN/A
11:00 PM
Sat, Feb 28
77 °FPassing clouds.3 mph83%30.09 "HgN/A
10:00 PM77 °FPassing clouds.5 mph83%30.09 "HgN/A
9:00 PM77 °FPassing clouds.3 mph83%30.07 "HgN/A
8:00 PM79 °FPassing clouds.2 mph79%30.04 "HgN/A
7:00 PM79 °FPassing clouds.13 mph84%30.04 "HgN/A
6:00 PM81 °FPassing clouds.15 mph79%30.01 "HgN/A
5:00 PM82 °FPassing clouds.13 mph84%30.01 "HgN/A
4:00 PM82 °FPassing clouds.13 mph79%30.01 "HgN/A
3:00 PM82 °FScattered clouds.10 mph79%30.01 "HgN/A
2:00 PM81 °FPartly sunny.10 mph84%30.04 "HgN/A
1:00 PM82 °FBroken clouds.12 mph74%30.04 "HgN/A
12:00 PM82 °FSprinkles. Broken clouds.12 mph74%30.07 "HgN/A
11:00 AM82 °FPartly sunny.14 mph74%30.09 "HgN/A
10:00 AM82 °FPassing clouds.17 mph74%30.09 "HgN/A
9:00 AM81 °FScattered clouds.13 mph79%30.09 "HgN/A
8:00 AM81 °FPassing clouds.10 mph79%30.07 "HgN/A
7:00 AM77 °FPartly sunny.5 mph79%30.04 "HgN/A
6:00 AM77 °FPassing clouds.7 mph79%30.01 "HgN/A
5:00 AM77 °FPassing clouds.6 mph79%30.01 "HgN/A
4:00 AM75 °FPassing clouds.2 mph83%30.01 "HgN/A
3:00 AM77 °FPassing clouds.7 mph83%29.98 "HgN/A
2:00 AM77 °FPassing clouds.7 mph89%30.01 "HgN/A
Weather by CustomWeather, © 2015

See weather overviewHow to use our weather pages